AirNav    Bose A20 Aviation Headset
 
 911 users online  

W27 Woodland State Airport
Woodland, Washington, USA

GOING TO WOODLAND?


FAA INFORMATION EFFECTIVE 15 AUGUST 2019

Location

FAA Identifier: W27
Lat/Long: 45-53-55.7460N 122-44-14.1880W
45-53.929100N 122-44.236467W
45.8988183,-122.7372744
(estimated)
Elevation: 29 ft. / 9 m (estimated)
Variation: 20E (1985)
From city: 1 mile SE of WOODLAND, WA
Time zone: UTC -7 (UTC -8 during Standard Time)
Zip code: 98674

Airport Operations

Airport use: Open to the public
Activation date: 07/1969
Control tower: no
ARTCC: SEATTLE CENTER
FSS: SEATTLE FLIGHT SERVICE STATION
NOTAMs facility: SEA (NOTAM-D service available)
Attendance: UNATNDD
Wind indicator: yes
Segmented circle: no
Lights: SS-SR

Airport Communications

CTAF: 122.9
WX ASOS at SPB (9 nm SW): 135.875 (503-543-6401)
WX AWOS-3PT at KLS (15 nm NW): 135.075 (360-577-1964)
WX ASOS at VUO (17 nm S): 135.125 (360-696-1280)
WX ASOS at PDX (20 nm S): PHONE (503) 493-7687

Nearby radio navigation aids

VOR radial/distance  VOR name  Freq  Var
BTGr305/10.9BATTLE GROUND VORTAC116.6021E
UBGr356/34.3NEWBERG VOR/DME117.4021E

 
NDB name  Hdg/Dist  Freq  Var  ID
KELSO138/17.125617ELSO .-.. ... ---
BANKS023/20.635616EPND .--. -. -..

Airport Services

Parking: tiedowns
Airframe service: NONE
Powerplant service: NONE
Bottled oxygen: NONE
Bulk oxygen: NONE

Runway Information

Runway 14/32

Dimensions: 1953 x 25 ft. / 595 x 8 m
Surface: asphalt, in good condition
Runway edge lights: low intensity
Runway edge markings: RY 32 MARKINGS FADED.
RUNWAY 14  RUNWAY 32
Latitude: 45-54.076117N45-53.782067N
Longitude: 122-44.329350W122-44.143583W
Traffic pattern: rightleft
Runway heading: 136 magnetic, 156 true316 magnetic, 336 true
Displaced threshold: 290 ft.no
Markings: basic, in poor conditionbasic, in poor condition
Obstructions: 40 ft. pole, 245 ft. from runway, 114 ft. right of centerline, 1:1 slope to clear
20:1 SLOPE TO DSPLCD THR.
30 ft. trees, 800 ft. from runway, 20:1 slope to clear

Airport Ownership and Management from official FAA records

Ownership: Publicly-owned
Owner: WSDOT AVIATION DIVISION
7702 TERMINAL STREET SW
TUMWATER, WA 98501-7264
Phone (800) 552-0666
800 NUMBER FOR WA STATE CALLS ONLY.
Manager: G. PAUL WOLF
7702 TERMINAL STREET SW
TUMWATER, WA 98501-7264
Phone (360) 618-2477

Airport Operational Statistics

Aircraft operations: avg 69/week *
97% transient general aviation
3% local general aviation
* for 12-month period ending 31 December 2018

Additional Remarks

PLINE IN APCH TO RY 14.
FOR CD CTC PORTLAND APCH AT 503-493-7545.
12 FT DIKE NW END.
VEHICLES, PEDESTRIANS, AND ANIMALS ON AND INVOF ARPT.
2 +6 NAVIGATIONAL BUOYS MARKING SOUTH SIDE OF COMMERCIAL WATERLANE, LGTD WITH BLINKING DIM RED LGTS. BLINK AT APPROXIMATELY 2 SECOND INTERVALS, EXTREMELY DIFFICULT TO SEE.
EXTREME TURBULENCE POSSIBLE WHEN WINDS FROM THE EAST.
CTC WA STATE AVIATION DIVISION 360-709-8015 OR 1-800-552-0666 WA AREA FOR FACILITY INFO PRIOR TO USE.
FOR ACFT ACCIDENTS/INCIDENTS CTC WA STATE EMERGENCY OPERATIONS CENTER 800-258-5990.
6 FT FENCE IN PRIMARY SFC, 105 FT FROM CNTRLN, WEST OF RWY AND RUNS ENTIRE LENGTH.

Instrument Procedures

There are no published instrument procedures at W27.

Some nearby airports with instrument procedures:

KSPB - Scappoose Industrial Airpark (9 nm SW)
KKLS - Southwest Washington Regional Airport (15 nm NW)
KVUO - Pearson Field Airport (17 nm S)
KPDX - Portland International Airport (20 nm S)
KHIO - Portland-Hillsboro Airport (23 nm SW)
 
Loc | Ops | Rwys | IFR | FBO | Links
Com | Nav | Svcs | Stats | Notes
Area around W27 (Woodland State Airport)
 
Road maps at: MapQuest Bing Google
 
Aerial photo
WARNING: Photo may not be current or correct
Aerial photo of W27 (Woodland State Airport)
Photo taken 04-Apr-2015
looking northeast.

Do you have a better or more recent aerial photo of Woodland State Airport that you would like to share? If so, please send us your photo.

 
Sectional chart

 
Airport distance calculator
Flying to Woodland State Airport? Find the distance to fly.

From to W27

Sunrise and sunset
Times for 23-Aug-2019
 Local
(UTC-7)
 Zulu
(UTC)
Morning civil twilight05:5012:50
Sunrise06:2213:22
Sunset20:0503:05
Evening civil twilight20:3703:37

Current date and time
Zulu (UTC)  23-Aug-2019 12:22:01
Local (UTC-7)  23-Aug-2019 05:22:01
 
METAR
KSPB 
10nm SW 
231153Z AUTO 00000KT 10SM CLR 11/11 A2997 RMK AO2 SLP147 T01110106 10167 20111 56006
KKLS 
15nm NW 
231156Z AUTO 00000KT 10SM CLR 11/10 A3000 RMK AO2 SLP161 T01060100 10161 20106 58007
KVUO 
17nm S 
231153Z AUTO 00000KT 10SM CLR 13/12 A2997 RMK AO2 SLP149 T01330117 10183 20133 56006
KPDX 
20nm S 
231153Z 00000KT 10SM FEW025 14/12 A2998 RMK AO2 SLP149 T01440117 10183 20139 56006
TAF
KPDX 
20nm S 
231131Z 2312/2412 32003KT P6SM SCT250 TEMPO 2314/2316 SCT012 FM232100 33007KT P6SM SCT120 BKN250 FM240000 33010KT P6SM SCT120 BKN250 FM240700 34006KT P6SM SCT250
KHIO 
23nm SW 
231131Z 2312/2412 00000KT P6SM SCT250 FM240100 33008KT P6SM SCT120 BKN250 FM240800 VRB03KT P6SM SCT250
NOTAMs
Click for the latest NOTAMs
NOTAMs are issued by the DoD/FAA and will open in a separate window not controlled by AirNav.

 

 
 

Would you like to see your business listed on this page?

 If your business provides an interesting product or service to pilots, flight crews, aircraft, or users of the Woodland State Airport, you should consider listing it here.  To start the listing process, click on the button below
 
Add a business
 

Other Pages about Woodland State Airport

www.wsdot.wa.gov/...
 
Update a link
 
Copyright © AirNav, LLC. All rights reserved. Privacy Policy  Contact